User: anonymous   Login
Location: Unspecified
(0.0000°N, 0.0000°E)
Time: 05:30:15
(UTC+00:00)
Language:

NOSS 3-3 (C) - Orbit

View from above orbital plane
View from above orbital plane
View from above satellite
View from above satellite

Ground track
Ground track

The orbit data is extracted from the following two-line orbital elements,

1 28541U 05004C   20050.24278187 0.00000000  00000-0  00000-0 0    08
2 28541  63.4241 216.5911 0351396 358.0105   1.9895 13.40799943    07
Epoch (UTC): 19 February 2020 05:49:36
Eccentricity: 0.0351396
inclination: 63.4241°
perigee height: 843 km
apogee height: 1369 km
right ascension of ascending node: 216.5911°
argument of perigee: 358.0105°
revolutions per day: 13.40799943
mean anomaly at epoch: 1.9895°
orbit number at epoch: 0

The dashed part of the orbit path shows where the satellite is in the earth's shadow,  

DLR